Retour au catalogue

USA 575

ActifMilitaireVLEO
NORAD 67487·PAYLOAD·🇺🇸 United States

Lancé Jan 17, 2026 depuis Vandenberg Space Force Base

Loading…

Prochains Passages (prochaines 24 heures)

TLE

PériméSource: Mike McCants

Époque: Aug 2, 2026, 20:45 UTC

1 67487U 26011D   26214.86526069 0.00000000  00000-0  00000-0 0    02
2 67487  70.0170 119.8214 0002000 341.0200  18.9799 14.96713362    02

Suivez USA 575 en temps réel avec AllMySat

Download on the App Store